Dayton Wright, OH

7:31 AM EST on December 12, 2017 (GMT -0500)
Dayton-Wright Brothers

Weather History for KMGY - September, 2013

Change the Weather History Date:

Sunday, September 1, 2013

  Actual Average (KFFO) Record (KFFO)
Temperature  
Mean Temperature 74 °F -  
Max Temperature 84 °F 80 °F 97 °F (2011)
Min Temperature 66 °F 58 °F 50 °F (1999)
Cooling Degree Days 9    
Growing Degree Days 24 (Base 50)    
Moisture  
Dew Point 67 °F    
Average Humidity 78    
Maximum Humidity 93    
Minimum Humidity 58    
Precipitation  
Precipitation 0.00 in - - ()
Sea Level Pressure  
Sea Level Pressure 29.80 in    
Wind  
Wind Speed 5 mph (SSW)    
Max Wind Speed 9 mph    
Max Gust Speed -    
Visibility 10 miles    
Events      
Averages and records for this station are not official NWS values.
T = Trace of Precipitation, MM = Missing Value Source: NWS Daily Summary

Daily Weather History Graph

Daily Weather History Graph

Search for Another Location

Airport or City:

Trip Planner

Search our weather history database for the weather conditions in past years. The results will help you decide how hot, cold, wet, or windy it might be!

Date:

Astronomy

Sep. 01, 2013 Rise Set
Actual Time 7:05 AM EDT 8:07 PM EDT
Civil Twilight 6:37 AM EDT 8:35 PM EDT
Nautical Twilight 6:04 AM EDT 9:07 PM EDT
Astronomical Twilight 5:30 AM EDT 9:41 PM EDT
Moon 3:26 AM EDT (9/1) 5:43 PM EDT (9/1)
Length of Visible Light 13h 57m
Length of Day
13h 02m
Waning Crescent, 14% of the Moon is Illuminated
Sep 1
Waning Crescent
Sep 5
New
Sep 12
First Quarter
Sep 19
Full
Sep 26
Last Quarter

Hourly Weather History & Observations

Time (EDT) Temp. Heat Index Dew Point Humidity Pressure Visibility Wind Dir Wind Speed Gust Speed Precip Events Conditions
12:53 AM 71.1 °F - 66.9 °F 87% 29.83 in 10.0 mi SSW 4.6 mph - N/A   Clear
1:53 AM 69.1 °F - 66.9 °F 93% 29.81 in 8.0 mi SSE 4.6 mph - N/A   Clear
2:53 AM 69.1 °F - 66.0 °F 90% 29.82 in 10.0 mi SSW 3.5 mph - N/A   Scattered Clouds
3:53 AM 68.0 °F - 64.9 °F 90% 29.81 in 10.0 mi South 6.9 mph - N/A   Partly Cloudy
4:53 AM 68.0 °F - 64.9 °F 90% 29.80 in 10.0 mi SSE 3.5 mph - N/A   Clear
5:53 AM 66.9 °F - 64.9 °F 93% 29.80 in 10.0 mi South 5.8 mph - N/A   Clear
6:53 AM 66.9 °F - 64.9 °F 93% 29.82 in 10.0 mi SSW 4.6 mph - N/A   Clear
7:53 AM 68.0 °F - 64.9 °F 90% 29.83 in 10.0 mi South 3.5 mph - N/A   Clear
8:53 AM 69.1 °F - 66.0 °F 90% 29.83 in 10.0 mi SW 3.5 mph - N/A   Mostly Cloudy
9:53 AM 71.1 °F - 66.0 °F 84% 29.83 in 10.0 mi South 5.8 mph - N/A   Mostly Cloudy
10:53 AM 73.0 °F - 66.9 °F 81% 29.83 in 10.0 mi SW 8.1 mph - N/A   Overcast
11:53 AM 77.0 °F - 68.0 °F 74% 29.82 in 10.0 mi SW 4.6 mph - N/A   Scattered Clouds
12:53 PM 80.1 °F 82.3 °F 66.9 °F 64% 29.81 in 10.0 mi SW 6.9 mph - N/A   Partly Cloudy
1:53 PM 81.0 °F 83.8 °F 68.0 °F 65% 29.81 in 10.0 mi SW 9.2 mph - N/A   Scattered Clouds
2:53 PM 81.0 °F 83.3 °F 66.9 °F 62% 29.81 in 10.0 mi SW 5.8 mph - N/A   Mostly Cloudy
3:53 PM 82.0 °F 84.5 °F 66.9 °F 60% 29.79 in 10.0 mi WSW 6.9 mph - N/A   Overcast
4:53 PM 82.9 °F 85.4 °F 66.9 °F 58% 29.77 in 10.0 mi SW 5.8 mph - N/A   Scattered Clouds
5:53 PM 82.9 °F 85.8 °F 68.0 °F 60% 29.76 in 10.0 mi West 6.9 mph - N/A   Partly Cloudy
6:53 PM 82.9 °F 86.5 °F 69.1 °F 63% 29.77 in 10.0 mi West 6.9 mph - N/A   Scattered Clouds
7:53 PM 81.0 °F 84.1 °F 69.1 °F 67% 29.78 in 10.0 mi WSW 3.5 mph - N/A   Clear
8:53 PM 79.0 °F - 69.1 °F 72% 29.78 in 10.0 mi WSW 3.5 mph - N/A   Clear
9:53 PM 75.9 °F - 69.1 °F 79% 29.79 in 10.0 mi Calm Calm - N/A   Clear
10:53 PM 73.9 °F - 69.1 °F 85% 29.80 in 10.0 mi Calm Calm - N/A   Clear
11:53 PM 73.9 °F - 69.1 °F 85% 29.80 in 10.0 mi South 3.5 mph - N/A   Clear